| time (UTC) | temp C | wind direction | speed KPH | gust KPH | rain 1hr cm | rain 24hr cm | rain mn cm | humidity % | barometer mb |
| 20260504050104 | 7 | 0 | 0.0 | 3.2 | 0.00 | 0.00 | 0.00 | 69 | 1017.0 |
| 20260504044559 | 7 | 0 | 0.0 | 3.2 | 0.00 | 0.00 | 0.00 | 70 | 1016.9 |
| 20260504043057 | 7 | 0 | 0.0 | 0.0 | 0.00 | 0.00 | 0.00 | 70 | 1016.8 |
| 20260504041557 | 7 | 314 | 0.0 | 0.0 | 0.00 | 0.00 | 0.00 | 68 | 1016.7 |
| 20260504040058 | 7 | 0 | 0.0 | 0.0 | 0.00 | 0.00 | 0.00 | 70 | 1016.7 |
| 20260504034557 | 7 | 314 | 0.0 | 0.0 | 0.00 | 0.00 | 0.00 | 69 | 1016.6 |
| 20260504033050 | 7 | 0 | 0.0 | 0.0 | 0.00 | 0.00 | 0.00 | 68 | 1016.5 |
| 20260504031552 | 7 | 0 | 0.0 | 1.6 | 0.00 | 0.00 | 0.00 | 68 | 1016.4 |
| 20260504030054 | 8 | 314 | 0.0 | 1.6 | 0.00 | 0.00 | 0.00 | 65 | 1016.3 |
| 20260504024604 | 7 | 350 | 1.6 | 3.2 | 0.00 | 0.00 | 0.00 | 63 | 1016.2 |
| 20260504023053 | 7 | 0 | 0.0 | 1.6 | 0.00 | 0.00 | 0.00 | 62 | 1016.2 |
| 20260504021557 | 8 | 0 | 0.0 | 1.6 | 0.00 | 0.00 | 0.00 | 59 | 1016.5 |
| 20260504020054 | 8 | 0 | 0.0 | 0.0 | 0.00 | 0.00 | 0.00 | 60 | 1016.2 |
| 20260504014558 | 8 | 0 | 0.0 | 0.0 | 0.00 | 0.00 | 0.00 | 59 | 1016.0 |
| 20260504013054 | 9 | 0 | 0.0 | 0.0 | 0.00 | 0.00 | 0.00 | 56 | 1015.9 |
| 20260504011551 | 10 | 0 | 0.0 | 0.0 | 0.00 | 0.00 | 0.00 | 53 | 1015.8 |
| 20260504004555 | 10 | 155 | 0.0 | 1.6 | 0.00 | 0.00 | 0.00 | 50 | 1015.3 |
| 20260504003058 | 11 | 164 | 0.0 | 1.6 | 0.00 | 0.00 | 0.00 | 48 | 1015.1 |
| 20260504001554 | 12 | 164 | 0.0 | 1.6 | 0.00 | 0.00 | 0.00 | 45 | 1015.0 |
| 20260504000137 | 13 | 0 | 0.0 | 1.6 | 0.00 | 0.00 | 0.00 | 39 | 1015.0 |
| 20260503234557 | 13 | 101 | 0.0 | 1.6 | 0.00 | 0.00 | 0.00 | 38 | 1015.1 |
| 20260503233053 | 15 | 0 | 0.0 | 11.3 | 0.00 | 0.00 | 0.00 | 39 | 1015.1 |
| 20260503231553 | 16 | 0 | 1.6 | 4.8 | 0.00 | 0.00 | 0.00 | 29 | 1015.1 |
| 20260503230057 | 17 | 138 | 0.0 | 8.0 | 0.00 | 0.00 | 0.00 | 29 | 1015.1 |
| 20260503224553 | 17 | 226 | 0.0 | 6.4 | 0.00 | 0.00 | 0.00 | 26 | 1015.1 |
| 20260503223057 | 17 | 141 | 3.2 | 14.5 | 0.00 | 0.00 | 0.00 | 24 | 1015.1 |
| 20260503221558 | 17 | 71 | 4.8 | 17.7 | 0.00 | 0.00 | 0.00 | 26 | 1015.2 |
| 20260503220056 | 17 | 75 | 6.4 | 16.1 | 0.00 | 0.00 | 0.00 | 25 | 1015.1 |
| 20260503214554 | 17 | 45 | 4.8 | 22.5 | 0.00 | 0.00 | 0.00 | 27 | 1015.2 |
| 20260503213055 | 17 | 334 | 4.8 | 12.9 | 0.00 | 0.00 | 0.00 | 25 | 1015.2 |
| 20260503211618 | 17 | 106 | 4.8 | 16.1 | 0.00 | 0.00 | 0.00 | 27 | 1015.2 |
| 20260503210058 | 17 | 58 | 8.0 | 25.7 | 0.00 | 0.00 | 0.00 | 25 | 1015.3 |
| 20260503204553 | 17 | 146 | 3.2 | 14.5 | 0.00 | 0.00 | 0.00 | 24 | 1015.3 |
| 20260503203106 | 17 | 52 | 0.0 | 6.4 | 0.00 | 0.00 | 0.00 | 28 | 1015.7 |
| 20260503201555 | 17 | 176 | 6.4 | 14.5 | 0.00 | 0.00 | 0.00 | 26 | 1015.8 |
| 20260503200057 | 16 | 116 | 4.8 | 16.1 | 0.00 | 0.00 | 0.00 | 25 | 1016.1 |
| 20260503194557 | 16 | 84 | 3.2 | 11.3 | 0.00 | 0.00 | 0.00 | 26 | 1016.5 |
| 20260503193053 | 16 | 162 | 3.2 | 16.1 | 0.00 | 0.00 | 0.00 | 25 | 1016.9 |
| 20260503191553 | 15 | 303 | 4.8 | 22.5 | 0.00 | 0.00 | 0.00 | 25 | 1017.3 |
| 20260503190051 | 15 | 186 | 8.0 | 17.7 | 0.00 | 0.00 | 0.00 | 28 | 1017.6 |
| 20260503184551 | 15 | 214 | 4.8 | 19.3 | 0.00 | 0.00 | 0.00 | 32 | 1017.7 |
| 20260503183054 | 14 | 173 | 3.2 | 20.9 | 0.00 | 0.00 | 0.00 | 28 | 1017.8 |
| 20260503181603 | 14 | 90 | 4.8 | 20.9 | 0.00 | 0.00 | 0.00 | 28 | 1018.1 |
| 20260503180053 | 14 | 343 | 3.2 | 12.9 | 0.00 | 0.00 | 0.00 | 30 | 1018.2 |
| 20260503174553 | 13 | 161 | 1.6 | 22.5 | 0.00 | 0.00 | 0.00 | 33 | 1018.2 |
| 20260503173101 | 13 | 201 | 3.2 | 12.9 | 0.00 | 0.00 | 0.00 | 31 | 1018.5 |
| 20260503171553 | 13 | 75 | 4.8 | 12.9 | 0.00 | 0.00 | 0.00 | 30 | 1018.7 |
| 20260503170105 | 12 | 23 | 6.4 | 19.3 | 0.00 | 0.00 | 0.00 | 31 | 1018.8 |
| 20260503081557 | 3 | 245 | 0.0 | 3.2 | 0.00 | 0.00 | 0.00 | 80 | 1017.3 |